GEFSCGP_con_probscp_054.txt.gz
Probability
0 0 0 0 0 0 0 0 0 0 0 0 1 2 4 6 10 18 25 28 31 34 32 26 20 15 11 7 5 3 1 0 0 1 2 2 1 0 0 0 0 0 0 0
0 0 0 0 0 0 0 0 0 0 0 0 1 2 3 6 10 14 18 19 20 21 21 16 12 10 7 4 2 1 0 1 2 3 3 3 2 1 1 0 0 0 0 0
0 0 0 0 0 0 0 0 0 0 0 0 1 1 2 6 9 9 10 10 8 8 9 7 4 3 2 1 0 1 3 5 7 7 5 3 2 2 1 0 0 0 0 0
0 0 0 0 0 0 0 0 0 0 0 0 0 0 2 5 6 6 7 7 4 3 4 3 1 0 0 0 1 6 14 18 18 14 8 3 1 1 1 1 0 0 0 0
0 0 0 0 0 0 0 0 0 0 0 0 0 0 1 3 3 3 3 3 2 1 2 1 0 0 0 0 4 15 29 35 31 22 13 5 2 0 0 1 0 0 0 0
0 0 0 0 0 0 0 0 0 0 0 0 0 0 1 1 1 1 1 1 1 1 1 2 1 1 1 1 6 20 39 47 40 29 16 7 3 1 0 0 0 0 0 0
0 0 0 0 0 0 0 0 0 0 0 0 0 0 0 0 0 0 0 0 0 1 2 3 3 2 2 2 5 20 40 48 42 29 16 8 4 1 0 0 0 0 0 0
0 0 0 0 0 0 0 0 0 0 0 0 0 0 0 0 0 0 0 0 0 1 3 3 2 1 1 1 5 17 35 44 36 24 14 7 3 1 0 0 0 0 0 0
0 0 0 0 0 0 0 0 0 0 0 0 0 0 0 0 0 0 0 1 0 1 2 3 1 1 1 2 6 16 29 33 26 17 10 5 2 1 0 0 0 0 0 0
0 0 0 0 0 0 0 0 0 0 0 0 0 0 0 0 0 0 0 0 0 1 2 2 2 2 1 3 8 15 21 22 17 10 5 2 1 0 0 1 0 0 0 0
0 0 0 0 0 0 0 0 0 0 0 0 0 0 0 0 0 0 0 0 0 0 1 1 1 3 3 4 6 10 13 12 9 4 1 0 0 0 0 0 0 0 0 0
0 0 0 0 0 0 0 0 0 0 0 0 0 0 0 0 0 0 0 0 0 0 0 0 1 3 4 3 4 5 6 5 3 1 1 1 1 1 1 1 1 2 2 2
0 0 0 0 0 0 0 0 0 0 0 0 0 0 0 0 0 0 0 0 0 0 0 1 4 6 6 4 2 2 1 1 0 0 1 2 3 4 5 5 4 6 8 8
0 0 0 0 0 0 0 0 0 0 0 0 0 0 0 0 0 0 0 0 0 1 1 5 14 18 14 8 3 1 0 0 0 1 2 3 4 6 7 7 7 10 12 12
0 0 0 0 0 0 0 0 0 0 0 0 0 0 0 0 0 0 0 0 0 1 3 9 23 32 28 17 8 3 1 1 1 2 3 3 5 6 7 7 9 14 16 14
0 0 0 0 0 0 0 0 0 0 0 0 0 0 0 0 0 0 0 0 0 1 2 9 26 42 45 34 21 13 9 8 8 7 6 5 6 7 7 7 11 16 19 19
1 1 0 0 0 0 0 0 0 0 1 0 0 0 0 0 0 0 0 1 1 0 1 7 24 48 58 51 40 33 27 23 20 17 12 10 9 9 8 9 13 18 22 24
1 1 0 0 0 0 0 1 0 0 1 1 1 1 1 0 0 0 0 1 1 1 2 6 18 39 54 57 55 52 44 37 32 27 22 17 14 12 12 14 18 25 29 30
1 1 1 0 0 0 0 0 0 1 3 4 4 3 2 0 0 0 0 1 1 2 4 7 9 21 42 57 64 64 57 47 40 35 32 27 21 19 20 24 28 33 35 34
3 2 1 0 0 0 0 0 1 3 5 5 5 4 2 1 0 1 3 5 9 12 15 16 14 21 45 68 76 75 69 60 52 46 42 39 34 32 32 36 40 40 34 28
3 2 1 1 1 2 2 3 5 6 6 4 2 1 1 2 3 6 14 22 28 32 32 34 38 46 63 82 90 87 82 76 70 62 55 52 47 41 39 45 50 45 32 22
2 2 2 3 6 9 9 8 9 8 4 1 0 0 1 5 11 20 30 39 45 46 45 48 60 71 80 91 96 94 92 89 84 77 69 63 57 46 41 49 53 46 34 25
1 2 5 9 16 18 13 8 6 4 2 0 0 0 1 6 17 28 36 41 43 43 44 50 62 74 82 89 94 96 95 94 90 85 80 73 65 57 52 51 48 39 31 25
1 2 6 15 22 21 12 5 2 0 0 0 0 0 1 5 15 24 29 31 31 32 36 42 50 58 66 74 81 85 87 88 89 87 84 77 68 64 62 56 43 34 28 25
4 5 11 21 28 24 13 4 0 0 0 0 0 0 0 3 9 15 18 19 19 21 24 29 34 39 43 49 57 63 68 73 78 80 77 69 59 56 59 54 41 30 24 21
9 11 17 29 35 28 13 3 0 0 0 0 0 0 0 2 5 8 11 12 12 13 16 20 23 26 29 34 41 48 55 62 68 72 70 60 48 48 52 48 36 22 15 12

GEFSCGP_con_probscp_060.txt.gz
Probability
0 0 0 0 0 0 0 0 0 0 0 0 0 1 1 2 4 6 6 7 8 9 10 10 9 7 4 1 0 0 0 0 0 0 0 0 0 0 0 0 0 0 0 0
0 0 0 0 0 0 0 0 0 0 0 0 0 0 1 2 3 6 7 7 8 9 8 7 6 4 2 0 0 0 0 0 0 0 0 0 0 0 0 0 0 0 0 0
0 0 0 0 0 0 0 0 0 0 0 0 0 0 0 1 2 6 8 8 8 8 6 4 2 1 0 0 0 0 0 0 0 0 0 0 0 0 0 0 0 0 0 0
0 0 0 0 0 0 0 0 0 0 0 0 0 0 0 0 1 5 8 8 7 6 4 1 0 0 0 0 0 0 0 0 0 0 0 0 0 0 0 0 0 0 0 0
0 0 0 0 0 0 0 0 0 0 0 0 0 0 0 0 1 3 5 6 5 4 2 0 0 0 0 0 0 0 0 0 0 0 0 0 0 0 0 0 0 0 0 0
0 0 0 0 0 0 0 0 0 0 0 0 0 0 0 0 0 1 2 3 2 1 1 0 0 0 0 0 0 0 0 0 0 0 0 0 0 0 0 0 0 0 0 0
0 0 0 0 0 0 0 0 0 0 0 0 0 0 0 0 0 0 1 1 1 0 0 0 0 0 0 0 0 0 0 0 0 0 0 0 0 0 0 0 0 0 0 0
0 0 0 0 0 0 0 0 0 0 0 0 0 0 0 0 0 0 0 1 0 0 1 1 1 0 0 0 0 0 0 0 0 0 0 0 0 0 0 0 0 0 0 0
0 0 0 0 0 0 0 0 0 0 0 0 0 0 0 0 0 0 0 0 0 0 1 2 2 1 0 0 0 0 0 0 0 0 0 0 0 0 0 0 0 0 0 0
0 0 0 0 0 0 0 0 0 0 0 0 0 0 0 0 0 0 0 0 0 0 0 1 1 1 0 0 0 0 0 0 1 1 1 0 0 0 0 0 0 0 0 0
0 0 0 0 0 0 0 0 0 0 0 0 0 0 0 0 0 0 0 0 0 0 0 0 0 0 0 0 0 0 0 0 1 2 1 0 0 0 0 0 0 0 0 0
0 0 0 0 0 0 0 0 0 0 0 0 0 0 0 0 0 0 0 0 0 0 0 0 0 0 0 0 0 0 0 0 1 2 1 0 0 0 0 0 0 0 0 0
0 0 0 0 0 0 0 0 0 0 0 0 0 0 0 0 0 0 0 0 0 0 0 0 0 0 0 0 0 0 0 0 1 1 0 0 0 0 0 0 0 0 0 0
0 0 0 0 0 0 0 0 0 0 0 0 0 0 0 0 0 0 0 0 0 0 0 0 0 0 0 0 0 0 0 0 0 0 0 0 0 0 0 0 0 0 0 0
0 0 0 0 0 0 0 0 0 0 0 0 0 0 0 0 0 0 0 0 0 0 0 0 0 0 0 0 0 0 0 0 0 0 0 0 0 0 0 0 0 0 0 0
0 0 0 0 0 0 0 0 0 0 0 0 0 0 0 0 0 0 0 0 0 0 0 0 0 0 0 0 0 0 0 0 0 0 0 0 0 0 0 0 0 0 0 0
0 0 0 0 0 0 0 0 0 0 0 0 0 0 0 0 0 0 0 0 0 0 0 0 0 0 0 0 0 0 0 0 0 0 0 0 0 0 0 0 0 0 0 0
0 0 0 0 0 0 0 0 0 0 0 0 0 0 0 0 0 0 0 0 0 0 0 0 0 0 0 0 0 0 0 0 0 0 0 0 0 0 0 0 0 0 0 0
0 0 0 0 0 0 0 0 0 0 0 0 1 0 0 0 0 0 0 0 0 0 0 0 0 0 0 0 0 0 0 0 0 0 0 0 0 0 0 0 0 0 0 0
0 0 0 0 0 0 0 0 0 0 0 0 0 0 0 0 0 0 0 0 0 0 0 0 0 0 0 0 0 0 0 0 0 0 0 0 0 0 0 0 0 0 0 0
0 0 0 0 0 0 0 0 0 0 0 0 0 0 0 1 0 0 0 0 0 0 0 0 0 0 1 1 0 0 0 0 0 0 0 0 0 0 0 0 0 0 0 0
0 0 0 0 0 0 0 0 0 0 0 0 0 0 0 0 0 0 0 0 0 0 0 0 1 1 2 1 0 0 0 1 1 1 1 0 0 0 0 0 0 0 0 0
0 0 0 0 0 0 0 0 0 0 0 0 0 0 0 0 0 0 0 0 0 0 0 0 1 2 2 1 0 0 0 0 1 1 1 0 0 0 0 0 0 0 0 0
0 0 0 0 0 0 0 0 0 0 0 0 0 0 0 0 0 0 0 0 0 0 0 0 1 1 1 0 0 0 0 0 0 1 1 0 0 0 0 0 0 0 0 0
0 0 0 0 0 0 0 0 0 0 0 0 0 0 0 0 0 0 0 0 0 0 0 0 0 0 0 0 0 0 0 0 0 0 0 0 0 0 0 0 0 0 0 0
0 0 1 1 1 0 0 0 0 0 0 0 0 0 0 0 0 0 0 0 0 0 0 0 0 0 0 0 0 0 0 0 0 0 0 0 0 0 0 0 0 0 0 0

GEFSCGP_con_probscp_066.txt.gz
Probability
0 0 0 0 0 0 0 0 0 0 0 0 0 0 1 1 2 3 5 5 6 5 4 5 6 5 5 3 1 0 0 0 0 0 0 0 0 0 0 0 0 0 0 0
0 0 0 0 0 0 0 0 0 0 0 0 0 0 0 1 2 3 4 4 4 5 4 4 5 4 4 2 1 0 0 0 0 0 0 0 0 0 0 0 0 0 0 0
0 0 0 0 0 0 0 0 0 0 0 0 0 0 0 0 1 1 3 3 3 4 4 4 4 4 2 1 0 0 0 0 0 0 0 0 0 0 0 0 0 0 0 0
0 0 0 0 0 0 0 0 0 0 0 0 0 0 0 0 0 1 2 3 3 3 3 3 3 2 1 0 0 0 0 0 0 0 0 0 0 0 0 0 0 0 0 0
0 0 0 0 0 0 0 0 0 0 0 0 0 0 0 0 0 0 1 1 3 3 2 1 1 1 0 0 0 0 0 0 0 0 0 0 0 0 0 0 0 0 0 0
0 0 0 0 0 0 0 0 0 0 0 0 0 0 0 0 0 0 0 1 2 2 1 0 0 0 0 0 0 0 0 0 0 0 0 0 0 0 0 0 0 0 0 0
0 0 0 0 0 0 0 0 0 0 0 0 0 0 0 0 0 0 0 0 1 1 1 0 0 0 0 0 0 0 0 0 0 0 0 0 0 0 0 0 0 0 0 0
0 0 0 0 0 0 0 0 0 0 0 0 0 0 0 0 0 0 0 0 0 0 0 0 0 1 1 0 0 0 0 0 0 0 0 0 0 0 0 0 0 0 0 0
0 0 0 0 0 0 0 0 0 0 0 0 0 0 0 0 0 0 0 0 0 0 0 0 0 1 2 1 1 0 0 0 0 0 0 0 0 0 0 0 0 0 0 0
0 0 0 0 0 0 0 0 0 0 0 0 0 0 0 0 0 0 0 0 0 0 0 0 0 1 2 2 1 0 0 0 0 0 0 0 0 0 0 0 0 0 0 0
0 0 0 0 0 0 0 0 0 0 0 0 0 0 0 0 0 0 0 0 0 0 0 0 0 0 1 1 1 0 0 0 0 0 0 0 0 0 0 0 0 0 0 0
0 0 0 0 0 0 0 0 0 0 0 0 0 0 0 0 0 0 0 0 0 0 0 0 0 0 0 0 0 0 0 0 0 0 0 0 0 0 0 0 0 0 0 0
0 0 0 0 0 0 0 0 0 0 0 0 0 0 0 0 0 0 0 0 0 0 0 0 0 0 0 0 0 0 0 0 0 0 0 0 0 0 0 0 0 0 0 0
0 0 0 0 0 0 0 0 0 0 0 0 0 0 0 0 0 0 0 0 0 0 0 0 0 0 0 0 0 0 0 0 0 0 0 0 0 0 0 0 0 0 0 0
0 0 0 0 0 0 0 0 0 0 0 0 0 0 0 0 0 0 0 0 0 0 0 0 0 0 0 0 0 0 0 0 0 0 0 0 0 0 0 0 0 0 0 0
0 0 0 0 0 0 0 0 0 0 0 0 0 0 0 0 0 0 0 0 0 0 0 0 0 0 0 0 0 0 0 0 0 0 0 0 0 0 0 0 0 0 0 0
0 0 0 0 0 0 0 0 0 0 0 0 0 0 0 0 0 0 0 0 0 0 0 0 0 0 0 0 0 0 0 0 0 0 0 0 0 0 0 0 0 0 0 0
0 0 0 0 0 0 0 0 0 0 0 0 0 0 0 0 0 0 0 0 0 0 0 0 0 0 0 0 0 0 0 0 0 0 0 0 0 0 0 0 0 0 0 0
0 0 0 0 0 0 0 0 0 0 0 0 0 0 0 0 0 0 0 0 0 0 0 0 0 0 0 0 0 0 0 0 0 0 0 0 0 0 0 0 0 0 0 0
0 0 0 0 0 0 0 0 0 0 0 0 0 0 0 0 0 0 0 0 0 0 0 0 0 0 0 0 0 0 0 0 0 0 0 0 0 0 0 0 0 0 0 0
0 0 0 0 0 0 0 0 0 0 0 0 0 0 0 0 0 0 0 0 0 0 0 0 0 0 0 0 0 0 0 0 0 0 0 0 0 0 0 0 0 0 0 0
0 0 0 0 0 0 0 0 0 0 0 0 0 0 0 0 0 0 0 0 0 0 0 0 0 0 0 0 0 0 0 0 0 0 0 0 0 0 0 0 0 0 0 0
0 0 0 0 0 0 0 0 0 0 0 0 0 0 0 0 0 0 0 0 0 0 0 0 0 0 0 0 0 0 0 0 0 0 0 0 0 0 0 0 0 0 0 0
0 0 0 0 0 0 0 0 0 0 0 0 0 0 0 0 0 0 0 0 0 0 0 0 0 0 0 0 0 0 0 0 0 0 0 0 0 0 0 0 0 0 0 0
0 0 0 0 0 0 0 0 0 0 0 0 0 0 0 0 0 0 0 0 0 0 0 0 0 0 0 0 0 0 0 0 0 0 0 0 0 0 0 0 0 0 0 0
0 0 0 0 0 0 0 0 0 0 0 0 0 0 0 0 0 0 0 0 0 0 0 0 0 0 0 0 0 0 0 0 0 0 0 0 0 0 0 0 0 0 0 0

GEFSCGP_con_probscp_072.txt.gz
Probability
0 0 0 0 0 0 0 0 0 0 0 0 0 0 0 0 0 0 2 5 7 8 9 9 11 12 11 13 14 11 7 4 2 2 1 1 0 0 0 0 0 0 0 0
0 0 0 0 0 0 0 0 0 0 0 0 0 0 0 0 0 0 1 4 6 8 9 9 9 9 10 10 10 7 5 3 1 1 1 1 0 0 0 0 0 0 0 0
0 0 0 0 0 0 0 0 0 0 0 0 0 0 0 0 0 0 0 2 5 8 9 8 7 6 8 7 5 2 2 2 1 0 1 1 0 0 0 0 0 0 0 0
0 0 0 0 0 0 0 0 0 0 0 0 0 0 0 0 0 0 0 0 3 6 8 8 6 4 4 4 2 0 1 1 0 0 0 0 0 0 0 0 0 0 0 0
0 0 0 0 0 0 0 0 0 0 0 0 0 0 0 0 0 0 0 0 1 3 5 7 5 2 1 1 0 0 0 0 0 0 0 0 0 0 0 0 0 0 0 0
0 0 0 0 0 0 0 0 0 0 0 0 0 0 0 0 0 0 0 0 0 1 3 5 4 2 0 0 0 0 0 0 0 0 0 0 0 0 0 0 0 0 0 0
0 0 0 0 0 0 0 0 0 0 0 0 0 0 0 0 0 0 0 0 0 0 2 5 5 3 1 1 1 1 1 0 0 0 0 0 0 0 0 0 0 0 0 0
0 0 0 0 0 0 0 0 0 0 0 0 0 0 0 0 0 0 0 0 0 0 2 4 5 3 2 4 4 2 1 0 0 0 1 1 0 0 0 0 0 0 0 0
0 0 0 0 0 0 0 0 0 0 0 0 0 0 0 0 0 0 0 0 0 0 0 2 3 3 3 5 5 3 1 1 1 1 1 1 1 1 1 0 0 0 0 0
0 0 0 0 0 0 0 0 0 0 0 0 0 0 0 0 0 0 0 0 0 0 0 0 1 1 2 4 6 5 4 3 2 2 2 2 2 2 2 1 1 1 0 0
0 0 0 0 0 0 0 0 0 0 0 0 0 0 0 0 0 0 0 0 0 0 0 0 0 0 2 4 6 6 5 4 4 4 5 5 5 5 5 5 4 3 1 0
0 0 0 0 0 0 0 0 0 0 0 0 0 0 0 0 0 0 0 0 0 0 0 0 0 1 2 3 5 6 6 6 6 7 10 11 11 11 10 11 10 7 3 1
0 0 0 0 0 0 0 0 0 0 0 0 0 0 0 0 0 0 1 0 0 0 0 1 1 2 2 3 3 5 6 6 8 10 14 19 21 20 18 17 17 13 8 4
0 0 0 0 0 0 0 0 0 0 0 0 0 0 0 0 0 0 0 0 0 1 2 5 6 6 7 5 4 4 6 8 11 14 20 26 28 27 25 24 23 20 12 7
0 0 0 0 0 0 0 0 0 0 0 0 0 0 0 0 0 0 0 0 1 2 4 8 11 13 14 12 8 7 10 14 18 21 24 27 29 29 29 28 27 24 17 11
0 0 0 0 0 0 0 0 0 0 0 0 0 0 0 0 0 1 1 2 4 5 6 9 13 18 20 19 15 14 16 21 27 28 26 26 27 28 28 27 25 25 24 22
2 2 1 0 0 0 0 0 0 0 0 0 0 1 0 0 1 2 2 4 8 12 13 14 16 20 22 21 20 20 22 25 29 31 30 28 26 27 26 22 23 28 34 37
4 3 1 0 0 0 0 0 0 0 0 0 0 0 0 0 1 2 3 4 9 15 19 20 18 17 18 19 20 21 21 21 22 25 27 25 21 20 20 18 20 26 34 39
5 3 1 0 0 0 0 0 0 0 0 0 0 0 0 0 0 1 2 4 7 12 15 16 13 12 13 14 15 16 16 14 14 16 18 16 13 14 15 15 15 20 25 27
4 3 1 0 0 0 0 0 0 0 0 0 0 0 0 1 2 3 3 3 6 8 9 9 8 9 10 11 13 13 13 12 11 12 12 10 9 11 13 13 12 14 16 16
2 2 1 0 0 0 0 0 0 0 0 0 0 0 1 4 7 7 3 3 5 5 6 5 6 6 7 8 10 11 11 10 9 8 7 7 6 7 8 10 10 11 11 10
1 1 0 0 0 0 0 0 1 0 0 0 0 0 3 7 9 7 4 2 2 2 2 2 2 2 3 4 5 5 5 4 3 2 2 2 2 2 3 4 5 5 5 6
1 0 0 0 0 1 0 1 2 1 0 0 1 2 4 7 7 5 3 1 0 0 0 0 0 0 0 1 1 1 1 0 0 0 0 0 0 0 1 1 1 1 1 2
0 0 0 0 0 0 0 0 1 0 0 0 2 3 5 7 6 5 3 1 0 0 0 0 0 0 0 0 0 0 0 0 0 0 0 0 0 0 0 0 0 0 0 0
0 0 0 0 0 0 0 0 0 0 0 1 4 6 8 9 7 5 3 1 0 0 0 0 0 0 0 0 0 0 0 0 0 0 0 0 0 0 0 0 0 0 0 0
0 0 0 0 0 1 1 1 0 1 1 3 7 10 11 10 8 5 2 0 0 0 0 0 0 0 0 0 0 0 0 0 0 0 0 0 0 0 0 0 0 0 0 0

GEFSCGP_con_probscp_078.txt.gz
Probability
0 0 0 0 0 0 0 0 0 0 0 0 1 5 11 14 17 21 26 31 33 32 34 37 41 42 42 43 42 38 33 28 22 19 15 10 5 4 3 2 1 0 0 0
0 0 0 0 0 0 0 0 0 0 0 0 1 5 11 14 14 17 22 29 33 34 35 37 39 39 38 39 37 33 29 23 19 16 13 9 5 4 3 1 0 0 0 0
0 0 0 0 0 0 0 0 0 0 0 0 0 4 11 14 13 12 16 24 30 32 33 34 33 31 29 30 28 26 24 20 16 13 10 7 5 4 2 1 0 0 0 0
0 0 0 0 0 0 0 0 0 0 0 0 0 3 9 13 11 10 14 20 25 28 31 30 28 24 21 20 20 21 20 18 14 11 8 6 4 3 2 1 0 0 0 0
0 0 0 0 0 0 0 0 0 1 1 0 0 1 5 8 8 10 13 18 22 24 26 25 23 20 16 13 12 14 15 15 13 10 8 5 3 3 2 1 0 0 0 0
0 0 0 0 0 0 0 0 0 3 4 3 0 0 1 3 5 7 10 14 17 17 18 19 18 16 12 9 8 10 12 12 10 8 6 4 3 2 2 1 1 1 0 0
0 0 0 0 0 0 0 0 0 3 6 4 1 0 0 1 2 4 7 10 11 10 11 13 13 11 9 8 9 11 12 11 7 4 4 3 2 2 2 2 2 1 0 0
0 0 0 0 0 0 0 0 0 1 2 2 1 0 0 0 1 1 3 6 7 6 7 9 10 9 8 9 11 13 14 11 6 3 2 3 2 1 1 1 1 0 0 0
0 0 0 0 0 0 0 0 0 0 0 0 0 1 0 0 0 0 1 3 4 4 4 6 7 7 7 9 12 14 15 13 9 5 3 3 2 1 0 0 0 0 0 0
0 0 0 0 0 0 0 0 0 0 0 0 0 0 0 0 1 0 0 1 2 3 3 4 4 4 5 8 13 16 16 15 12 8 6 4 4 3 1 0 1 2 2 2
0 0 0 0 0 0 0 0 0 0 0 0 0 0 0 0 0 0 0 0 1 2 2 4 6 6 5 7 13 17 17 16 13 11 9 7 7 7 6 4 6 8 9 9
0 0 0 0 1 1 0 0 0 0 0 0 0 0 0 1 1 1 2 1 1 2 4 8 12 14 11 10 13 17 17 14 13 13 13 13 13 14 15 15 17 20 21 20
0 0 0 1 2 3 1 0 0 0 0 0 0 1 2 3 3 4 4 4 3 5 8 13 18 22 22 20 21 21 19 16 15 19 23 25 25 25 27 28 31 35 36 36
0 0 0 1 3 3 1 0 0 0 0 0 1 4 8 9 8 8 8 9 9 10 13 20 28 32 32 34 35 32 27 23 24 29 36 39 40 41 41 42 44 49 51 50
1 1 0 0 1 1 1 0 0 0 0 0 3 12 21 21 17 14 14 15 16 16 19 29 40 44 43 45 45 40 35 32 33 40 46 49 52 54 55 56 58 61 61 57
8 9 7 2 0 0 0 0 0 0 0 0 7 24 37 36 28 23 21 20 22 25 29 38 49 54 53 53 50 45 42 40 41 48 54 56 58 61 63 66 69 72 71 67
22 26 19 7 1 0 0 0 0 0 1 4 15 35 50 50 42 35 31 30 34 39 43 47 53 57 57 55 52 49 46 44 46 52 57 57 58 60 63 67 71 74 74 73
30 34 27 11 3 0 0 0 0 2 6 13 26 43 56 57 52 47 44 44 48 52 52 51 51 52 51 49 46 45 43 41 43 47 49 50 50 52 55 58 62 66 67 66
28 32 27 16 7 3 4 3 2 7 14 22 32 45 52 51 49 47 46 47 50 51 50 46 44 41 40 38 35 32 30 27 28 32 34 35 36 39 40 42 47 52 53 53
23 28 26 19 12 9 9 5 3 11 21 26 30 37 40 40 40 41 37 37 39 38 37 34 30 27 26 26 22 18 15 12 12 14 16 17 19 22 24 27 31 34 35 35
24 28 27 20 16 16 14 8 7 16 27 28 26 30 35 37 40 38 33 29 26 23 20 18 15 13 13 13 11 8 6 4 3 4 4 5 6 8 11 14 16 16 16 16
25 28 30 28 27 28 24 18 18 25 28 27 27 33 40 42 40 35 29 22 16 11 8 7 5 4 4 4 4 3 3 1 1 1 1 1 1 2 3 4 4 5 6 5
18 20 24 28 33 33 29 24 22 22 21 21 29 40 44 40 34 28 22 15 9 6 4 2 1 1 1 1 1 1 1 0 0 0 0 0 0 0 0 0 0 1 2 2
6 8 11 16 20 21 20 17 13 10 11 19 33 43 43 36 29 23 16 11 7 5 3 1 0 0 0 0 0 0 0 0 0 0 0 0 0 0 0 0 0 0 1 1
1 2 4 6 7 10 10 8 7 7 13 25 38 43 40 33 25 18 12 9 6 4 3 2 0 0 0 0 0 0 0 0 0 0 0 0 0 0 0 0 0 0 0 0
0 1 2 4 7 9 8 7 8 12 22 34 42 41 37 29 21 14 10 9 6 4 3 2 1 0 0 0 0 0 0 0 0 0 0 0 0 0 0 0 0 0 0 0

GEFSCGP_con_probscp_084.txt.gz
Probability
0 0 0 0 0 0 0 0 0 0 1 3 7 7 7 8 9 11 19 28 33 31 27 26 24 22 21 19 17 16 16 15 12 9 6 2 0 0 0 0 0 0 0 0
0 0 0 0 0 0 0 0 0 0 1 2 4 5 5 6 6 9 14 23 29 30 26 22 21 20 20 17 14 13 14 13 11 8 4 1 0 0 0 0 0 0 0 0
0 0 0 0 0 0 0 0 0 0 1 1 1 2 3 4 4 5 8 16 24 27 24 19 18 18 17 14 10 9 10 11 9 6 2 0 0 0 0 0 0 0 0 0
0 0 0 0 0 0 0 0 0 0 0 0 0 1 2 2 2 2 4 10 17 22 21 18 18 18 15 11 9 7 7 7 6 4 1 0 0 0 0 0 0 0 0 0
0 0 0 0 0 0 0 0 0 0 0 0 0 0 1 1 0 0 2 6 13 17 17 16 18 17 13 10 7 5 4 4 4 3 1 0 0 0 0 0 0 0 0 0
0 0 0 0 0 0 0 0 0 0 0 0 0 0 0 0 0 0 1 4 10 13 13 12 13 12 10 8 5 3 3 3 3 2 1 0 0 0 0 0 0 0 0 0
0 0 0 0 0 0 0 0 0 0 0 0 0 0 0 0 0 0 2 3 5 7 8 9 9 8 7 6 4 2 1 1 2 1 0 0 0 0 0 0 0 0 0 0
0 0 0 0 0 0 0 0 0 0 0 0 0 0 0 0 0 0 1 2 2 3 5 7 7 6 6 7 5 2 1 1 1 1 0 0 0 0 0 0 0 0 0 0
0 0 0 0 0 0 0 0 0 0 0 0 0 0 0 0 0 1 1 1 1 2 4 6 6 5 6 8 7 4 3 3 2 1 0 0 0 0 0 0 0 0 0 0
0 0 0 0 0 0 0 0 0 0 0 0 0 0 0 0 1 1 1 1 1 1 3 5 4 5 7 8 7 5 4 5 4 2 0 0 0 0 0 0 0 0 0 0
0 0 0 0 0 0 0 0 0 0 0 0 0 0 0 0 1 2 1 1 1 1 3 4 4 5 6 8 8 7 6 6 5 3 1 0 0 0 0 0 0 0 0 0
0 0 0 0 0 0 0 0 0 0 0 0 0 0 1 1 1 2 2 1 1 1 2 4 5 5 6 8 10 10 8 6 4 3 2 1 0 0 0 0 0 0 0 0
0 0 0 0 0 0 0 0 0 0 0 0 0 1 2 3 3 4 4 2 1 1 2 3 4 5 5 7 10 10 9 7 5 4 3 2 0 0 0 0 0 0 0 0
0 0 0 0 0 0 0 0 0 0 0 0 1 2 3 4 6 6 5 3 2 4 5 4 4 4 5 7 8 8 9 9 8 7 6 4 1 0 0 1 1 1 0 0
0 0 0 0 0 0 0 0 0 0 0 1 3 4 3 4 7 8 7 5 4 6 6 4 3 4 5 6 7 7 8 9 9 9 8 6 3 2 2 2 3 3 2 2
0 0 0 0 0 0 0 0 0 0 1 3 4 5 4 5 8 9 8 8 8 9 7 4 3 3 4 5 6 7 7 7 7 7 7 7 5 5 5 4 4 4 5 4
0 0 0 0 0 0 0 1 2 3 4 5 6 8 10 12 11 10 10 11 11 11 8 4 2 2 2 3 4 5 5 5 5 4 5 5 5 4 4 3 3 4 4 4
0 0 0 0 0 0 0 2 4 6 9 9 11 17 22 25 21 16 13 12 10 8 6 4 2 2 2 2 2 2 2 2 2 2 2 2 2 1 1 1 1 2 2 3
0 0 0 0 0 0 1 2 5 9 13 16 21 27 33 35 30 20 13 8 6 5 4 2 1 1 1 1 1 0 0 0 0 0 0 0 0 0 0 0 0 0 1 2
0 0 0 0 0 1 1 2 4 8 13 19 26 32 34 33 26 16 8 5 4 3 2 1 0 0 0 0 0 0 0 0 0 0 0 0 0 0 0 0 0 0 0 1
0 0 0 0 0 0 1 2 2 4 8 15 23 27 25 21 16 9 5 3 2 1 0 0 0 0 0 0 0 0 0 0 0 0 0 0 0 0 0 0 0 0 0 0
0 0 0 0 0 0 2 3 2 2 6 12 17 16 13 11 9 7 4 2 1 0 0 0 0 0 0 0 0 0 0 0 0 0 0 0 0 0 0 0 0 0 0 0
0 0 0 0 0 1 3 3 3 4 7 10 11 9 6 6 5 4 2 1 0 0 0 0 0 0 0 0 0 0 0 0 0 0 0 0 0 0 0 0 0 0 0 0
0 0 0 0 0 0 1 2 3 5 6 6 5 4 4 4 3 2 1 0 0 0 0 0 0 0 0 0 0 0 0 0 0 0 0 0 0 0 0 0 0 0 0 0
0 0 0 0 0 0 0 1 2 3 4 4 3 3 3 2 1 0 0 0 0 0 0 0 0 0 0 0 0 0 0 0 0 0 0 0 0 0 0 0 0 0 0 0
0 0 0 0 0 0 0 0 1 1 2 3 3 3 3 1 0 0 0 0 0 0 0 0 0 0 0 0 0 0 0 0 0 0 0 0 0 0 0 0 0 0 0 0

GEFSCGP_con_probscp_090.txt.gz
Probability
0 0 0 0 0 0 0 0 0 0 0 0 0 1 0 1 5 10 13 14 14 15 17 17 15 13 13 11 9 8 8 7 6 6 5 3 2 1 0 0 0 0 0 0
0 0 0 0 0 0 0 0 0 0 0 0 0 1 0 1 3 7 9 9 10 12 15 16 14 12 11 10 9 9 8 8 8 7 5 3 1 0 0 0 0 0 0 0
0 0 0 0 0 0 0 0 0 0 0 0 0 0 0 0 1 3 4 5 6 8 11 12 12 11 10 9 10 10 9 9 9 8 5 2 0 0 0 0 0 0 0 0
0 0 0 0 0 0 0 0 0 0 0 0 0 0 0 0 0 1 1 3 3 4 5 6 8 10 10 10 11 12 11 9 7 6 3 1 0 0 0 0 0 0 0 0
0 0 0 0 0 0 0 0 0 0 0 0 0 0 0 0 0 0 1 2 2 1 1 2 4 7 8 9 10 10 9 6 4 3 1 0 0 0 0 0 0 0 0 0
0 0 0 0 0 0 0 0 0 0 0 0 0 0 0 0 0 0 1 1 1 0 1 1 2 4 5 6 6 6 5 4 3 2 1 0 0 0 0 0 0 0 0 0
0 0 0 0 0 0 0 0 0 0 0 0 0 0 0 0 0 0 0 0 0 0 0 0 1 2 3 4 3 2 1 2 1 1 0 0 0 0 0 0 0 0 0 0
0 0 0 0 0 0 0 0 0 0 0 0 0 0 0 0 0 0 0 0 0 0 0 0 1 2 3 4 4 2 0 0 0 0 0 0 0 0 0 0 0 0 0 0
0 0 0 0 0 0 0 0 0 0 0 0 0 0 0 0 0 0 0 0 0 0 0 0 1 2 4 5 5 2 0 0 0 0 0 0 0 0 0 0 0 0 0 0
0 0 0 0 0 0 0 0 0 0 0 0 0 0 0 0 0 0 0 0 0 0 0 0 0 1 3 5 4 2 0 0 0 0 0 0 0 0 0 0 0 0 0 0
0 0 0 0 0 0 0 0 0 0 0 0 0 0 0 0 0 0 0 0 0 0 0 0 0 0 1 3 3 1 0 0 0 0 0 1 1 0 0 0 0 0 0 0
0 0 0 0 0 0 0 0 0 0 0 0 0 0 0 0 0 0 0 0 0 0 0 0 0 0 1 2 2 1 0 0 0 0 1 1 1 0 0 0 0 0 0 0
0 0 0 0 0 0 0 0 0 0 0 0 0 0 0 0 0 0 0 0 0 0 0 0 0 0 0 1 1 1 0 0 1 1 1 0 0 0 0 0 0 0 0 0
0 0 0 0 0 0 0 0 0 0 0 0 0 0 0 1 1 1 1 0 0 0 0 0 0 0 1 2 3 2 1 1 2 2 1 0 0 0 0 0 0 0 0 0
0 0 0 0 0 0 0 0 0 0 0 0 1 1 1 2 2 2 2 1 0 0 0 0 0 1 2 3 5 4 2 1 2 2 0 0 0 0 0 0 0 0 0 0
0 0 0 0 0 0 0 0 0 0 1 1 1 2 2 3 3 3 2 1 1 2 1 0 0 1 2 3 4 4 2 2 3 2 0 0 0 0 0 0 0 0 0 0
0 0 0 0 0 0 0 0 0 1 2 2 1 2 4 5 4 3 2 3 5 4 1 0 0 1 1 1 1 2 3 3 2 1 0 0 0 0 0 0 0 0 0 0
0 0 0 0 0 0 0 0 2 3 3 1 1 3 5 6 5 4 3 5 7 6 3 1 0 0 0 0 0 2 3 3 1 0 0 1 0 0 0 0 0 0 0 0
0 0 0 0 0 0 0 1 3 5 3 1 2 5 6 6 6 5 4 5 6 5 3 1 0 0 0 0 0 1 2 2 1 0 0 0 0 0 0 0 0 0 0 0
0 0 0 0 0 0 0 0 2 4 3 2 3 6 6 6 5 4 4 4 4 3 1 0 0 0 0 0 0 1 1 1 0 0 0 0 0 0 0 0 0 0 0 0
0 0 0 0 0 0 0 0 1 2 2 1 3 5 5 4 3 3 2 2 1 1 0 0 0 0 0 0 0 0 0 0 0 0 0 0 0 0 0 0 0 0 0 0
0 0 0 0 0 0 0 0 0 0 0 1 2 3 3 3 2 2 1 0 0 0 0 0 0 0 0 0 0 0 0 0 0 0 0 0 0 0 0 0 0 0 0 0
0 0 0 0 0 0 0 0 0 0 0 1 2 2 2 2 1 1 0 0 0 0 0 0 0 0 0 0 0 0 0 0 0 0 0 0 0 0 0 0 0 0 0 0
0 0 0 0 0 0 1 1 0 0 0 0 1 1 1 1 0 0 0 0 0 0 0 0 0 0 0 0 0 0 0 0 0 0 0 0 0 0 0 0 0 0 0 0
0 0 0 0 0 0 1 1 0 0 0 0 0 0 0 0 0 0 0 0 0 0 0 0 0 0 0 0 0 0 0 0 0 0 0 0 0 0 0 0 0 0 0 0
0 0 0 0 0 0 1 1 0 1 1 1 0 0 0 0 0 0 0 0 0 0 0 0 0 0 0 0 0 0 0 0 0 0 0 0 0 0 0 0 0 0 0 0

GEFSCGP_con_probscp_096.txt.gz
Probability
0 0 0 0 0 0 0 0 0 0 0 0 0 0 3 8 7 6 12 20 21 19 18 19 20 18 16 15 14 17 23 28 33 37 38 35 30 24 18 11 6 2 1 0
0 0 0 0 0 0 0 0 0 0 0 0 0 1 3 6 5 4 8 12 14 15 17 18 19 17 15 15 14 14 17 22 27 31 34 34 30 24 17 12 8 5 2 0
0 0 0 0 0 0 0 0 0 0 0 0 0 1 2 3 2 2 3 3 6 11 15 17 15 12 11 12 12 11 12 16 20 25 28 27 25 21 16 12 9 7 3 1
0 0 0 0 0 0 0 0 0 0 0 0 0 1 1 2 3 3 1 1 3 8 11 13 11 7 6 7 9 11 13 16 18 21 22 20 17 15 13 11 10 7 4 1
0 0 0 0 0 0 0 0 0 0 0 0 0 0 1 2 3 4 2 1 2 4 6 7 6 4 2 3 6 11 16 18 18 18 18 15 13 12 11 10 8 6 4 2
0 0 0 0 0 0 0 0 0 0 0 0 0 0 0 1 2 2 2 1 0 1 2 2 3 2 1 1 5 10 16 18 16 14 14 13 11 9 9 7 5 4 3 1
0 0 0 0 0 0 0 0 0 0 0 0 0 0 0 0 0 0 0 0 0 0 0 2 3 2 2 2 3 8 14 16 14 13 13 12 10 8 6 4 3 3 2 1
0 0 0 0 0 0 0 0 0 0 0 0 0 0 0 0 0 0 0 0 0 0 0 1 2 3 3 2 3 6 11 13 13 13 12 11 10 8 5 3 1 2 2 1
0 0 0 0 0 0 0 0 0 0 0 0 0 0 0 0 0 0 0 0 0 0 0 0 1 3 3 2 2 5 8 9 11 12 11 10 9 8 4 1 0 1 1 0
0 0 0 0 0 0 0 0 0 0 0 0 0 0 0 0 0 0 0 0 0 1 2 1 1 2 1 1 1 3 5 7 8 9 9 9 8 6 4 2 1 1 1 1
0 0 0 0 0 0 0 0 0 0 0 0 0 0 0 0 0 0 0 1 0 1 3 3 1 0 0 0 0 1 2 4 5 5 7 9 8 6 5 5 3 2 2 2
0 0 0 0 0 0 0 0 0 0 0 0 0 0 0 0 0 0 0 0 1 2 4 3 1 1 1 1 0 0 1 2 3 3 4 6 8 7 7 7 4 3 3 3
0 0 0 0 0 0 0 0 0 0 0 0 0 0 0 0 0 1 1 2 4 7 8 5 3 2 2 2 2 1 2 2 3 4 4 5 6 7 7 6 5 5 5 5
0 0 0 0 0 0 0 0 0 0 0 0 0 0 0 1 1 3 5 7 10 13 13 10 7 6 6 6 6 5 5 6 6 5 5 6 7 8 8 7 7 7 7 6
1 1 1 0 0 0 0 0 0 0 0 0 0 0 2 3 4 5 10 14 18 19 18 14 11 10 10 10 11 11 12 11 9 6 6 7 8 10 9 8 8 9 8 6
2 2 1 0 0 0 0 0 0 0 0 0 0 2 5 6 7 9 14 18 21 22 21 19 17 15 13 12 14 17 18 17 13 10 9 8 8 9 10 9 9 10 9 7
4 4 2 0 0 0 0 0 0 0 0 0 1 5 11 14 16 17 18 19 21 22 24 24 23 21 18 15 16 19 21 22 20 17 13 11 10 11 10 9 10 12 11 8
6 5 2 0 0 0 0 0 0 0 0 2 6 13 22 27 27 24 21 22 25 26 26 25 24 23 21 18 19 21 22 22 23 20 16 13 13 13 12 11 11 12 10 7
5 4 1 0 0 0 0 1 1 0 2 7 14 22 29 30 27 24 24 27 31 31 28 26 24 23 23 23 25 26 23 20 18 17 15 13 13 12 11 10 9 8 6 4
2 1 0 0 0 0 1 2 2 0 3 11 21 26 27 26 25 25 24 25 27 28 29 28 27 26 28 29 29 27 22 17 13 11 11 11 10 8 7 7 5 4 3 2
0 0 0 0 0 0 2 3 3 3 5 12 19 23 22 23 27 25 20 16 17 21 24 26 27 27 28 28 25 21 16 13 9 7 7 8 6 4 3 3 2 1 1 1
0 0 0 0 0 0 2 3 4 5 6 8 12 15 15 17 20 17 12 10 10 13 15 17 19 18 17 17 16 13 10 8 6 4 4 4 2 1 1 1 0 0 0 0
0 0 0 0 0 0 1 1 3 4 3 3 5 7 8 9 9 8 7 7 6 6 6 6 7 7 6 7 7 6 5 4 3 2 1 1 0 0 0 0 0 0 0 0
0 0 0 0 0 0 0 0 1 1 0 1 3 3 3 3 4 4 5 4 3 2 1 1 1 1 1 1 2 1 1 1 1 0 0 0 0 0 0 0 0 0 0 0
0 0 0 0 0 0 0 0 0 0 1 2 2 1 0 1 1 2 2 1 0 0 0 0 0 0 0 0 0 0 0 0 0 0 0 0 0 0 0 0 0 0 0 0
0 0 0 0 0 0 0 0 0 1 2 3 2 1 0 0 0 1 1 0 0 0 0 0 0 0 0 0 0 0 0 0 0 0 0 0 0 0 0 0 0 0 0 0

GEFSCGP_con_probscp_102.txt.gz
Probability
0 0 0 0 0 0 0 0 0 0 0 0 1 6 16 21 17 20 38 54 60 63 67 67 61 53 51 51 48 46 45 42 41 44 47 49 50 45 39 35 29 21 16 14
0 0 0 0 0 0 0 0 0 0 0 0 0 5 17 22 16 16 30 46 55 60 64 65 60 53 48 47 44 42 41 39 38 40 43 46 47 42 38 35 29 21 16 15
0 0 0 0 0 0 0 0 0 0 0 0 0 5 15 20 14 12 21 35 47 55 60 62 60 53 46 40 38 37 36 34 33 33 36 38 40 38 36 33 28 21 17 16
0 0 0 0 0 0 0 0 0 0 0 0 0 4 12 16 13 13 19 28 38 47 52 55 56 52 45 36 32 32 32 30 29 29 29 30 31 31 31 30 25 20 17 16
0 0 0 0 0 0 0 0 0 0 0 0 0 2 7 10 11 13 17 22 30 37 42 46 49 49 44 35 29 29 30 30 29 26 24 25 25 26 27 26 22 17 15 13
0 0 0 0 0 0 0 0 0 0 0 0 0 1 2 4 7 10 14 19 23 27 31 36 40 43 40 31 24 24 28 30 28 25 21 21 22 24 25 24 19 13 10 9
0 0 0 0 0 0 0 0 0 0 0 1 1 0 0 1 3 6 10 14 16 18 22 25 29 32 31 24 18 19 24 26 26 24 20 19 20 21 22 21 16 9 5 5
0 0 0 0 0 0 0 0 0 0 0 1 1 1 1 0 1 2 4 7 10 12 15 18 20 20 20 18 14 14 18 22 23 22 21 18 17 18 17 17 12 7 4 4
0 0 0 0 0 0 0 0 0 0 0 1 1 2 3 2 1 0 1 4 8 11 13 15 15 14 13 14 14 13 16 20 21 20 18 16 14 13 13 12 9 7 5 5
0 0 0 0 0 0 0 0 0 0 0 0 0 2 4 4 2 1 1 5 10 12 13 15 14 11 10 11 12 12 13 16 17 15 14 12 12 11 11 11 10 8 8 8
0 0 0 0 0 0 0 0 0 0 0 0 0 1 2 2 2 2 3 9 14 14 16 18 15 10 9 9 9 9 9 10 11 10 9 9 10 10 11 12 12 13 12 13
0 0 0 0 0 0 0 0 0 0 0 0 0 0 0 1 2 2 6 16 21 19 19 21 18 12 8 8 8 8 7 7 7 6 5 7 9 10 11 13 15 15 15 14
0 0 0 0 0 0 0 0 0 0 0 0 0 1 2 2 2 5 10 22 32 31 26 26 23 17 12 10 10 10 8 7 6 5 5 7 10 12 13 15 15 15 14 13
0 0 0 0 0 0 0 0 0 0 0 0 0 2 3 4 6 10 16 28 39 42 39 35 32 27 20 16 15 14 12 10 8 8 9 12 13 15 17 17 15 13 11 8
0 0 0 0 0 0 0 0 0 0 0 0 0 1 4 8 12 17 24 33 40 45 48 49 46 41 33 27 23 20 18 16 15 15 15 16 17 18 20 19 16 13 9 6
0 0 0 0 0 0 0 0 0 0 0 0 0 3 7 13 20 28 35 39 42 47 55 61 60 53 45 39 33 29 25 25 25 23 21 20 20 21 22 21 19 16 11 9
2 2 2 1 0 0 0 0 0 0 0 1 5 11 19 28 36 44 50 53 53 55 62 68 68 64 55 46 39 34 30 30 30 27 24 23 23 23 23 22 22 19 15 12
3 3 3 1 0 0 1 1 1 1 0 3 11 22 32 38 44 53 61 65 66 66 70 74 74 72 64 52 44 39 34 33 31 28 26 25 25 24 23 22 22 20 16 12
2 3 2 1 0 0 1 2 2 1 3 11 24 35 39 36 37 49 61 67 70 72 75 76 75 74 69 61 54 48 42 37 32 28 26 25 24 23 21 19 18 17 14 12
1 1 2 1 0 0 0 1 1 2 10 26 41 49 47 40 40 50 59 64 66 69 70 69 68 68 67 65 62 55 48 40 33 29 25 23 22 20 18 16 14 12 10 9
1 2 2 1 0 0 1 2 6 12 22 36 45 48 49 50 52 54 56 54 55 56 58 59 58 56 57 58 56 50 42 36 31 27 24 21 18 16 14 13 12 9 6 4
2 2 1 1 2 3 5 6 13 24 29 30 30 30 34 41 45 45 42 38 36 36 40 44 44 43 44 45 43 38 32 29 25 21 18 15 12 10 9 8 7 5 3 1
1 1 2 2 4 7 8 8 13 19 19 17 17 17 17 21 26 28 25 22 20 19 22 26 28 29 30 31 29 26 23 20 17 13 9 6 5 3 3 3 2 1 1 0
0 1 1 2 3 6 7 7 7 7 6 7 11 12 11 12 16 18 16 14 12 12 12 13 14 14 14 15 15 14 11 9 8 5 3 1 1 0 1 1 0 0 0 0
0 0 0 1 1 2 5 5 3 2 2 4 7 7 8 11 13 14 13 11 10 8 8 7 6 4 3 3 4 4 2 2 1 1 0 0 0 0 0 0 0 0 0 0
0 0 0 0 0 1 4 4 1 0 1 3 4 3 5 9 11 11 11 10 7 6 6 5 2 1 0 0 0 0 0 0 0 0 0 0 0 0 0 0 0 0 0 0

GEFSCGP_con_probscp_108.txt.gz
Probability
0 0 0 0 0 0 0 0 0 0 0 0 1 5 9 16 26 36 43 50 55 55 51 45 39 37 35 33 31 29 24 19 17 18 19 18 19 15 9 8 10 9 7 6
0 0 0 0 0 0 0 0 0 0 0 0 2 5 9 13 20 31 40 47 51 53 51 46 41 37 34 31 28 24 20 17 15 16 14 13 13 12 8 7 8 8 8 7
0 0 0 0 0 0 0 0 0 0 0 0 2 5 7 9 12 21 31 38 44 50 49 44 40 35 29 26 23 19 15 14 13 12 10 8 7 7 6 5 6 6 8 8
0 0 0 0 0 0 0 0 0 0 0 0 1 2 3 5 7 11 17 25 35 44 44 38 35 31 25 22 20 18 14 12 11 10 9 7 5 4 4 5 5 6 6 6
0 0 0 0 0 0 0 0 0 0 0 0 0 0 1 2 4 4 7 14 25 34 36 32 29 27 24 22 21 19 15 11 9 8 8 6 5 4 4 4 6 6 5 4
0 0 0 0 0 0 0 0 0 0 0 0 0 0 0 1 1 2 4 9 15 22 26 27 26 24 21 21 21 18 14 10 8 7 6 5 4 4 4 4 6 6 5 4
0 0 0 0 0 0 0 0 0 0 0 0 0 0 0 0 0 1 3 5 8 13 18 22 23 19 15 15 16 15 10 7 6 6 6 5 4 4 4 4 6 6 5 3
0 0 0 0 0 0 0 0 0 0 0 0 0 0 0 1 1 3 4 3 5 9 13 17 18 15 10 10 10 9 7 5 5 6 6 5 4 4 3 4 5 5 3 2
0 0 0 0 0 0 0 0 0 0 0 0 0 0 1 2 3 5 5 4 6 8 9 11 11 9 8 7 7 7 6 5 6 6 6 5 4 3 3 3 4 4 2 0
0 0 0 0 0 0 0 0 0 0 0 0 0 0 1 2 4 6 6 7 7 7 8 7 5 4 4 6 8 9 7 7 7 6 6 5 4 3 3 3 2 1 0 0
0 0 0 0 0 0 0 0 0 0 0 0 0 0 0 1 2 4 6 8 8 8 8 6 2 2 3 5 8 9 8 7 7 6 6 5 4 3 3 3 1 0 0 0
0 0 0 0 0 0 0 0 0 0 0 0 0 0 0 0 0 2 5 8 8 8 7 6 3 2 2 3 6 8 7 6 6 6 5 5 4 3 3 2 1 0 0 0
0 0 0 0 0 0 0 0 0 0 0 0 0 0 0 0 1 2 5 8 9 8 8 8 7 4 2 2 3 5 5 5 5 5 4 4 4 4 2 1 0 0 0 0
0 0 0 0 0 0 0 0 0 0 0 0 0 0 0 1 2 4 7 10 12 11 10 11 10 7 5 3 4 4 4 5 5 5 4 4 5 5 3 1 0 0 0 0
0 0 0 0 0 0 0 0 0 0 0 0 1 1 1 1 3 5 7 11 14 14 12 12 12 10 8 7 7 6 4 5 5 4 3 3 4 5 4 2 1 1 0 0
0 0 0 0 0 0 0 0 0 0 0 1 3 3 3 5 7 7 8 13 17 17 15 13 12 11 9 9 9 7 5 4 4 3 3 3 4 4 4 3 3 2 1 0
0 0 0 0 0 0 0 0 0 2 4 5 6 6 7 11 13 11 14 19 22 22 19 15 12 11 10 10 9 7 5 5 4 4 4 4 4 5 4 3 3 2 1 0
0 0 0 0 0 0 0 0 1 6 12 11 10 11 14 17 17 17 19 23 24 23 20 15 13 13 12 12 11 9 7 6 5 6 6 6 6 6 5 4 3 2 1 0
0 0 0 0 0 0 1 1 2 7 13 14 13 15 16 16 17 18 19 20 20 19 17 15 15 17 16 15 14 13 10 9 9 9 10 9 8 6 4 3 3 2 1 0
0 0 0 0 0 0 1 1 1 4 8 10 12 13 12 11 12 12 12 13 14 14 15 17 19 21 20 16 16 15 14 12 11 11 11 10 8 5 3 3 3 2 1 0
0 0 0 0 0 0 0 0 0 1 3 6 9 8 7 6 4 4 6 7 7 8 11 15 17 18 17 15 15 15 13 12 11 10 8 6 4 3 2 2 1 1 0 0
0 0 0 0 0 0 0 0 0 1 2 4 5 6 5 3 1 1 3 4 3 3 5 8 11 12 12 12 12 11 10 9 7 6 3 1 1 1 1 1 0 0 0 0
0 0 0 0 0 1 1 0 0 1 2 2 3 3 3 2 0 1 2 3 2 3 4 6 8 8 7 8 8 8 6 4 3 2 1 0 0 0 0 0 0 0 0 0
0 0 0 0 1 1 0 0 0 0 0 0 1 1 1 1 0 1 2 3 4 4 5 6 6 5 4 4 5 4 2 1 0 0 0 0 0 0 0 0 0 0 0 0
0 0 0 0 0 0 0 0 0 0 0 0 0 0 0 0 0 0 1 2 3 3 3 3 2 1 1 1 1 1 0 0 0 0 0 0 0 0 0 0 0 0 0 0
0 0 0 0 0 0 0 0 0 0 0 0 1 1 1 1 1 1 0 1 2 2 1 1 0 0 0 0 0 0 0 0 0 0 0 0 0 0 0 0 0 0 0 0